Hourly Data Report for June 10, 2021

SANIRAJAK AIRPORT
NUNAVUT
Current Station Operator: NAVCAN

68°46'33.000" N
81°14'33.000" W
9.10 m
2402354
71293
YUX

Download Data

Hourly Data (June 2021)
Hourly Data Report for June 10, 2021
TIME
LST
Temp Definition
°C
Dew Point Definition
°C
Rel Hum Definition
%
Precip. Amount Definition
mm

Wind Dir Definition
10's deg

Wind Spd Definition
km/h
Visibility Definition
km
Stn Press Definition
kPa
Hmdx Definition


Wind Chill Definition


Weather Definition


00:00 0.2 -0.4 96 0.0 32 35 16.1 101.36     LegendNANA
01:00 0.1 -0.5 96 0.0 32 34 16.1 101.37     LegendNANA
02:00 0.2 -0.2 97 0.0 32 35 16.1 101.36     LegendNANA
03:00 -0.1 -0.7 96 0.0 33 37 16.1 101.33   -7 LegendNANA
04:00 -0.3 -1.2 94 0.0 32 34 16.1 101.33   -7 LegendNANA
05:00 -0.7 -1.6 94 0.0 32 34 16.1 101.33   -8 LegendNANA
06:00 -0.5 -1.4 94 0.0 33 35 16.1 101.31   -8 LegendNANA
07:00 -0.1 -1.0 94 0.0 33 39 16.1 101.29   -7 LegendNANA
08:00 0.3 -0.8 92 0.0 33 45 16.1 101.25     LegendNANA
09:00 0.6 -0.7 91 0.0 33 43 16.1 101.23     LegendNANA
10:00 0.7 -0.6 91 0.0 33 43 16.1 101.19     LegendNANA
11:00 0.9 -0.6 90 0.0 33 37 16.1 101.18     LegendNANA
12:00 1.0 -0.6 89 0.0 33 41 16.1 101.16     LegendNANA
13:00 1.2 -0.4 89 0.0 32 39 16.1 101.16     LegendNANA
14:00 1.4 -0.3 89 0.0 33 37 16.1 101.17     LegendNANA
15:00 1.4 -0.2 89 0.0 32 35 16.1 101.18     LegendNANA
16:00 1.2 -0.3 90 0.0 32 39 16.1 101.19     LegendNANA
17:00 1.1 -0.2 91 0.0 32 39 16.1 101.21     LegendNANA
18:00 1.1 -0.2 91 0.0 31 39 16.1 101.21     LegendNANA
19:00 0.8 -0.5 91 0.0 32 41 16.1 101.24     LegendNANA
20:00 0.5 -0.7 92 0.0 32 37 16.1 101.25     LegendNANA
21:00 0.1 -0.9 93 0.0 32 39 16.1 101.21     LegendNANA
22:00 -0.3 -1.2 94 0.0 32 37 16.1 101.20   -8 LegendNANA
23:00 -0.8 -1.7 94 0.0 32 35 16.1 101.20   -8 LegendNANA

Notes on Data Quality.

Legend

  • E = Estimated
  • M = Missing
  • NA = Not Available*
  • [empty] = Indicates an unobserved value
Date modified: